GW2996 Weather Reports


Display with metric or nautical units.
time (UTC)temp
F
wind
direction
speed
MPH
gust
MPH
rain 1hr
in
rain 24hr
in
rain mn
in
humidity
%
barometer
mb
20260506221718 45 350 1.0 2.0 0.00 0.69 0.69 88 1009.1
20260506221216 45 22 0.0 1.0 0.00 0.69 0.69 88 1009.1
20260506220713 45 32 0.0 2.0 0.00 0.69 0.69 88 1008.9
20260506220208 45 7 2.0 2.0 0.00 0.69 0.69 87 1008.8
20260506215705 45 299 0.0 3.0 0.00 0.69 0.69 88 1009.0
20260506215200 45 327 0.0 3.0 0.00 0.69 0.69 88 1009.1
20260506214657 45 54 0.0 3.0 0.00 0.69 0.69 88 1008.9
20260506214154 45 1 2.0 2.0 0.00 0.69 0.69 88 1009.0
20260506213653 45 113 0.0 2.0 0.00 0.69 0.69 88 1009.1
20260506213150 45 10 3.0 4.0 0.00 0.69 0.69 88 1008.7
20260506212647 45 344 2.0 3.0 0.00 0.69 0.69 88 1008.9
20260506212142 45 47 2.0 3.0 0.02 0.69 0.69 88 1008.9
20260506211638 45 0 3.0 3.0 0.02 0.69 0.69 88 1009.0
20260506211134 45 40 1.0 2.0 0.00 0.69 0.69 88 1009.1
20260506210631 45 326 0.0 2.0 0.00 0.69 0.69 88 1009.0
20260506210128 45 320 0.0 3.0 0.00 0.69 0.69 88 1009.1
20260506205625 45 44 0.0 2.0 0.00 0.69 0.69 88 1009.1
20260506205119 46 315 1.0 2.0 0.02 0.69 0.69 88 1009.1
20260506204618 46 176 0.0 2.0 0.02 0.69 0.69 88 1009.1
20260506204115 46 5 1.0 3.0 0.00 0.68 0.68 88 1009.0
20260506203613 45 261 1.0 3.0 0.00 0.68 0.68 88 1008.8
20260506203109 45 1 2.0 4.0 0.02 0.68 0.68 88 1008.7
20260506202607 45 341 1.0 2.0 0.02 0.68 0.68 88 1008.8
20260506202103 46 13 1.0 2.0 0.02 0.68 0.68 88 1008.8
20260506201601 45 22 1.0 5.0 0.02 0.67 0.67 88 1009.1
20260506201057 45 342 2.0 4.0 0.02 0.67 0.67 87 1008.7
20260506200554 46 342 4.0 7.0 0.00 0.67 0.67 87 1008.9
20260506200050 46 8 0.0 2.0 0.00 0.67 0.67 87 1008.6
20260506195547 46 335 1.0 2.0 0.00 0.67 0.67 86 1008.9
20260506195043 46 343 2.0 4.0 0.00 0.67 0.67 87 1008.6
20260506194541 46 21 2.0 3.0 0.02 0.67 0.67 87 1008.8
20260506194037 46 0 2.0 4.0 0.02 0.67 0.67 87 1008.6
20260506193535 46 265 2.0 5.0 0.00 0.67 0.67 87 1008.7
20260506193032 46 351 1.0 5.0 0.00 0.67 0.67 87 1008.7
20260506192529 46 16 2.0 5.0 0.00 0.67 0.67 87 1008.6
20260506192024 46 265 1.0 3.0 0.00 0.67 0.67 87 1008.6
20260506191521 46 354 4.0 4.0 0.00 0.67 0.67 86 1008.5
20260506191017 46 0 3.0 3.0 0.00 0.67 0.67 87 1008.8
20260506190515 46 15 3.0 3.0 0.00 0.67 0.67 88 1008.7
20260506190012 46 3 2.0 3.0 0.00 0.67 0.67 87 1008.8
20260506185509 46 3 3.0 3.0 0.00 0.67 0.67 87 1008.9
20260506185005 46 0 0.0 3.0 0.00 0.67 0.67 88 1008.9
20260506184503 46 352 3.0 3.0 0.00 0.67 0.67 87 1008.8
20260506183954 45 322 2.0 3.0 0.00 0.67 0.67 88 1009.1
20260506183449 45 265 2.0 2.0 0.00 0.67 0.67 88 1009.0
20260506182946 45 343 2.0 3.0 0.02 0.67 0.67 88 1009.0
20260506182444 45 14 0.0 4.0 0.02 0.67 0.67 88 1009.1
20260506181941 45 354 1.0 2.0 0.00 0.66 0.66 88 1009.4
20260506181439 45 349 1.0 4.0 0.00 0.66 0.66 88 1009.1
20260506180930 44 335 1.0 4.0 0.00 0.66 0.66 87 1009.4
20260506180426 45 173 0.0 3.0 0.02 0.66 0.66 88 1009.5
20260506175923 45 23 2.0 3.0 0.00 0.66 0.66 88 1009.6
20260506175420 44 311 0.0 3.0 0.02 0.66 0.66 88 1009.7
20260506174917 45 45 1.0 2.0 0.05 0.66 0.66 88 1009.8
20260506174414 45 62 1.0 4.0 0.05 0.65 0.65 88 1009.8
20260506173912 45 7 3.0 3.0 0.02 0.65 0.65 88 1009.6
20260506173408 45 224 0.0 2.0 0.02 0.65 0.65 88 1009.8
20260506172906 44 347 1.0 3.0 0.02 0.65 0.65 88 1009.7
20260506172402 44 2 3.0 4.0 0.02 0.64 0.64 88 1009.5
20260506171859 45 10 4.0 5.0 0.02 0.64 0.64 88 1009.7
20260506171356 44 1 0.0 3.0 0.05 0.64 0.64 88 1009.6
20260506170853 44 17 2.0 3.0 0.05 0.63 0.63 89 1010.0
20260506170349 44 12 2.0 2.0 0.07 0.63 0.63 89 1010.0
20260506165844 44 16 2.0 4.0 0.07 0.62 0.62 89 1010.1
20260506165341 44 352 3.0 3.0 0.07 0.61 0.61 89 1010.2
20260506164837 44 355 2.0 4.0 0.07 0.60 0.60 89 1010.1
20260506164334 44 336 1.0 3.0 0.07 0.59 0.59 89 1010.1
20260506163832 44 15 2.0 4.0 0.07 0.59 0.59 89 1009.9
20260506163326 44 1 1.0 3.0 0.09 0.58 0.58 89 1010.1
20260506162821 44 37 2.0 4.0 0.09 0.57 0.57 89 1009.9
20260506162319 44 346 3.0 5.0 0.12 0.57 0.57 89 1010.3
20260506161816 44 331 4.0 5.0 0.07 0.56 0.56 89 1010.2
20260506161314 44 3 4.0 4.0 0.07 0.55 0.55 89 1010.4
20260506160812 44 14 2.0 3.0 0.07 0.54 0.54 89 1010.3
20260506160308 44 346 4.0 4.0 0.07 0.53 0.53 89 1010.6
20260506155807 44 303 1.0 4.0 0.09 0.53 0.53 89 1010.4
20260506155306 44 347 1.0 5.0 0.09 0.52 0.52 89 1010.5
20260506153415 44 126 0.0 2.0 0.12 0.48 0.48 89 1010.8
20260506152913 43 210 0.0 4.0 0.09 0.48 0.48 89 1010.4
20260506152409 44 343 0.0 4.0 0.07 0.47 0.47 89 1010.3
20260506151908 43 344 1.0 5.0 0.05 0.46 0.46 89 1010.3
20260506151404 44 5 2.0 3.0 0.05 0.45 0.45 89 1010.4
20260506150902 44 359 2.0 4.0 0.05 0.45 0.45 89 1010.5
20260506150358 44 29 0.0 5.0 0.07 0.45 0.45 89 1010.4
20260506145855 44 292 3.0 5.0 0.07 0.44 0.44 89 1010.5
20260506145351 44 304 0.0 3.0 0.07 0.43 0.43 89 1010.7
20260506144849 44 327 2.0 3.0 0.07 0.42 0.42 89 1010.5
20260506144345 44 2 2.0 3.0 0.09 0.42 0.42 88 1010.6
20260506143844 44 5 5.0 5.0 0.12 0.41 0.41 88 1010.2
20260506143340 44 343 3.0 6.0 0.17 0.41 0.41 88 1010.4
20260506142839 44 339 4.0 6.0 0.09 0.39 0.39 88 1010.7
20260506142336 44 350 5.0 5.0 0.05 0.38 0.38 89 1010.5
20260506141834 44 336 0.0 5.0 0.05 0.37 0.37 89 1010.7
20260506141332 44 310 0.0 2.0 0.05 0.37 0.37 89 1010.8
20260506140830 44 347 2.0 2.0 0.05 0.37 0.37 88 1010.4
20260506140327 44 17 2.0 3.0 0.02 0.36 0.36 88 1010.4
20260506135824 44 39 4.0 5.0 0.00 0.36 0.36 88 1010.2
20260506135320 44 38 2.0 4.0 0.02 0.36 0.36 88 1010.4
20260506134817 44 350 2.0 4.0 0.02 0.35 0.35 88 1010.8
20260506134313 44 19 1.0 2.0 0.02 0.35 0.35 88 1010.7
20260506133810 44 9 1.0 5.0 0.02 0.35 0.35 88 1010.9
20260506133307 44 0 0.0 2.0 0.05 0.35 0.35 88 1011.0
20260506132804 44 336 0.0 2.0 0.05 0.34 0.34 88 1010.9
20260506132301 44 203 1.0 3.0 0.05 0.34 0.34 88 1010.9
20260506131759 44 224 0.0 2.0 0.05 0.34 0.34 88 1010.7
20260506131254 44 344 0.0 3.0 0.05 0.33 0.33 88 1010.6
20260506130752 44 301 0.0 2.0 0.05 0.33 0.33 88 1011.1
20260506130248 44 296 0.0 3.0 0.05 0.32 0.32 87 1010.6
20260506125747 44 17 3.0 4.0 0.02 0.32 0.32 87 1010.7
20260506125244 44 49 2.0 4.0 0.02 0.32 0.32 87 1010.8
20260506124742 44 93 2.0 3.0 0.05 0.32 0.32 88 1010.8
20260506124240 45 78 1.0 2.0 0.02 0.31 0.31 87 1010.9
20260506123737 44 9 2.0 3.0 0.02 0.31 0.31 87 1010.9
20260506123236 44 5 3.0 4.0 0.05 0.30 0.30 87 1011.3
20260506122732 44 48 1.0 2.0 0.07 0.30 0.30 88 1011.1
20260506122229 44 13 2.0 3.0 0.07 0.29 0.29 87 1011.5
20260506121728 44 13 0.0 2.0 0.05 0.29 0.29 87 1011.5
20260506121224 44 356 2.0 6.0 0.07 0.28 0.28 86 1011.6
20260506120722 45 3 3.0 3.0 0.07 0.28 0.28 89 1011.7
20260506120219 45 320 0.0 1.0 0.07 0.27 0.27 90 1011.7
20260506115717 46 247 0.0 1.0 0.07 0.26 0.26 90 1011.6
20260506115215 46 226 0.0 0.0 0.07 0.26 0.26 90 1011.6
20260506114712 46 64 1.0 1.0 0.02 0.25 0.25 90 1011.2
20260506114209 46 57 0.0 1.0 0.02 0.24 0.24 90 1011.0
20260506113708 46 81 0.0 1.0 0.02 0.24 0.24 90 1010.8
20260506113205 46 40 0.0 0.0 0.00 0.24 0.24 90 1010.9
20260506112701 46 74 0.0 1.0 0.00 0.24 0.24 90 1010.9
20260506112159 46 50 1.0 3.0 0.02 0.24 0.24 90 1010.7
20260506111656 46 49 2.0 2.0 0.00 0.24 0.24 90 1010.9
20260506111154 46 72 0.0 1.0 0.00 0.24 0.24 90 1010.7
20260506110651 46 11 0.0 0.0 0.00 0.24 0.24 90 1010.6
20260506110148 46 311 0.0 0.0 0.00 0.24 0.24 90 1010.7
20260506105645 46 104 1.0 2.0 0.00 0.24 0.24 90 1010.8
20260506105142 46 66 0.0 0.0 0.00 0.24 0.24 90 1010.6
20260506104640 46 76 0.0 0.0 0.00 0.24 0.24 90 1010.6
20260506104137 46 76 0.0 0.0 0.00 0.24 0.24 90 1010.6
20260506103634 46 89 0.0 1.0 0.00 0.24 0.24 90 1010.4
20260506103131 46 162 0.0 0.0 0.00 0.24 0.24 90 1010.7
20260506102629 46 51 1.0 1.0 0.00 0.24 0.24 90 1010.6
20260506102126 46 25 2.0 2.0 0.00 0.24 0.24 90 1010.4
20260506101623 46 2 2.0 3.0 0.00 0.24 0.24 90 1010.6
20260506101120 46 23 2.0 3.0 0.00 0.24 0.24 90 1010.6
20260506100619 46 22 2.0 2.0 0.00 0.24 0.24 90 1010.7
20260506100116 46 25 1.0 3.0 0.02 0.24 0.24 90 1011.0
20260506095615 46 3 1.0 2.0 0.02 0.24 0.24 90 1011.1
20260506095111 46 304 0.0 1.0 0.00 0.23 0.23 90 1011.0
20260506094608 46 315 0.0 1.0 0.00 0.23 0.23 90 1010.5
20260506094106 46 290 0.0 0.0 0.00 0.23 0.23 90 1011.0
20260506093604 46 20 1.0 2.0 0.02 0.23 0.23 90 1010.8
20260506093101 46 78 3.0 3.0 0.02 0.23 0.23 90 1010.9
20260506092559 46 27 2.0 2.0 0.00 0.23 0.23 90 1011.1
20260506092055 46 240 0.0 1.0 0.00 0.23 0.23 90 1011.4
20260506091554 46 42 2.0 2.0 0.00 0.23 0.23 90 1011.0
20260506091051 46 149 1.0 1.0 0.00 0.23 0.23 90 1011.3
20260506090549 46 49 0.0 3.0 0.00 0.23 0.23 90 1011.0
20260506090045 46 53 3.0 3.0 0.00 0.23 0.23 90 1010.8
20260506085542 46 48 2.0 2.0 0.00 0.23 0.23 90 1010.9
20260506085038 46 88 1.0 2.0 0.00 0.23 0.23 90 1011.0
20260506084535 46 24 1.0 2.0 0.00 0.23 0.23 90 1011.2
20260506084031 46 55 0.0 0.0 0.00 0.23 0.23 90 1011.3
20260506083529 46 102 0.0 1.0 0.00 0.23 0.23 90 1011.3
20260506083026 46 61 1.0 1.0 0.00 0.23 0.23 90 1011.3
20260506082523 46 21 0.0 2.0 0.00 0.23 0.23 90 1011.4
20260506082018 47 83 1.0 2.0 0.00 0.23 0.23 90 1011.2
20260506081517 47 339 0.0 0.0 0.00 0.23 0.23 90 1011.1
20260506081014 47 339 0.0 0.0 0.00 0.23 0.23 89 1011.3
20260506080511 47 22 0.0 2.0 0.00 0.23 0.23 89 1011.1
20260506073455 47 119 0.0 1.0 0.00 0.23 0.23 89 1011.0
20260506072952 47 29 0.0 0.0 0.00 0.23 0.23 89 1010.8
20260506072449 47 41 2.0 3.0 0.00 0.23 0.23 89 1010.9
20260506071947 48 93 2.0 3.0 0.00 0.23 0.23 89 1010.6
20260506071444 48 77 3.0 3.0 0.00 0.23 0.23 89 1010.5
20260506070941 47 55 1.0 1.0 0.00 0.23 0.23 89 1011.1
20260506070438 48 118 1.0 3.0 0.02 0.23 0.23 89 1010.8
20260506062416 48 89 2.0 2.0 0.02 0.22 0.22 89 1011.1
20260506061911 48 76 1.0 1.0 0.02 0.21 0.21 89 1010.9
20260506061408 48 3 2.0 2.0 0.05 0.21 0.21 89 1011.0
20260506060906 48 290 1.0 2.0 0.05 0.20 0.20 89 1011.0
20260506060404 48 97 1.0 3.0 0.05 0.20 0.20 89 1010.8
20260506051336 50 135 0.0 1.0 0.07 0.13 0.13 89 1010.7
20260506050833 50 198 2.0 3.0 0.14 0.12 0.12 89 1010.7
20260506050331 50 338 3.0 3.0 0.17 0.11 0.11 89 1010.2
20260506044821 51 157 0.0 1.0 0.12 0.07 0.07 89 1010.6
20260506044319 51 21 0.0 1.0 0.09 0.06 0.06 89 1010.5
20260506043816 51 17 1.0 2.0 0.07 0.05 0.05 89 1010.2
20260506043313 51 17 2.0 2.0 0.05 0.04 0.04 89 1010.4
20260506042812 51 202 0.0 0.0 0.07 0.04 0.04 89 1010.6
20260506042310 51 343 0.0 1.0 0.07 0.03 0.03 89 1010.4
20260506041809 51 304 0.0 0.0 0.05 0.02 0.02 89 1010.3
20260506041305 51 327 0.0 0.0 0.07 0.02 0.02 89 1010.3
20260506040802 51 29 0.0 0.0 0.12 0.02 0.02 89 1010.1
20260506040259 51 87 1.0 2.0 0.09 0.00 0.00 89 1010.3
20260506035756 51 5 0.0 1.0 0.02 0.19 0.19 89 1010.2
20260506035253 51 59 3.0 3.0 0.02 0.18 0.18 89 1009.9
20260506034750 51 68 0.0 1.0 0.05 0.18 0.18 88 1010.0
20260506034247 51 315 0.0 1.0 0.07 0.18 0.18 88 1010.0
20260506033744 52 130 0.0 2.0 0.09 0.17 0.17 88 1010.1
20260506033241 51 89 0.0 0.0 0.12 0.17 0.17 88 1009.9
20260506032738 52 66 0.0 1.0 0.14 0.16 0.16 87 1009.9
20260506032235 52 80 1.0 2.0 0.12 0.15 0.15 87 1009.8
20260506031732 51 64 1.0 2.0 0.12 0.13 0.13 86 1009.7
20260506031229 52 103 0.0 1.0 0.24 0.12 0.12 86 1009.7
20260506030727 52 99 1.0 2.0 0.24 0.11 0.11 84 1009.6
20260506030224 53 122 0.0 1.0 0.19 0.08 0.08 80 1009.5
20260506025721 53 161 1.0 3.0 0.19 0.06 0.06 79 1009.6
20260506025218 54 96 2.0 3.0 0.12 0.04 0.04 76 1009.1
20260506024715 55 271 1.0 4.0 0.07 0.03 0.03 74 1009.0
20260506024211 55 58 1.0 2.0 0.00 0.02 0.02 74 1008.9
20260506023707 56 172 2.0 2.0 0.00 0.02 0.02 76 1008.7
20260506023205 56 218 0.0 5.0 0.00 0.02 0.02 71 1008.5
20260506022656 57 152 4.0 5.0 0.00 0.02 0.02 68 1008.8
20260506022154 56 193 2.0 2.0 0.00 0.02 0.02 70 1008.6
20260506021652 55 245 2.0 4.0 0.02 0.02 0.02 72 1008.7
20260506021148 55 96 2.0 2.0 0.02 0.02 0.02 76 1008.6
20260506020640 55 143 0.0 2.0 0.05 0.02 0.02 77 1008.8
20260506020137 56 197 0.0 5.0 0.09 0.02 0.02 74 1008.8
20260506015635 58 14 2.0 5.0 0.05 0.01 0.01 67 1008.6
20260506015131 59 6 0.0 3.0 0.00 0.00 0.00 66 1008.5
20260506014629 60 69 2.0 3.0 0.00 0.00 0.00 62 1008.2
20260506014124 60 96 5.0 5.0 0.00 0.00 0.00 63 1008.2
20260506013623 60 138 2.0 6.0 0.00 0.00 0.00 65 1008.2
20260506013119 60 304 2.0 3.0 0.00 0.00 0.00 66 1007.9
20260506012616 60 153 3.0 3.0 0.00 0.00 0.00 70 1007.5
20260506012112 60 316 0.0 2.0 0.00 0.00 0.00 71 1007.9
20260506011610 61 37 2.0 2.0 0.00 0.00 0.00 71 1007.2
20260506011106 61 37 0.0 4.0 0.00 0.00 0.00 70 1007.4
20260506010605 61 333 2.0 3.0 0.00 0.00 0.00 71 1007.2
20260506005559 61 16 2.0 3.0 0.00 0.00 0.00 74 1007.0
20260506005054 60 357 2.0 2.0 0.00 0.00 0.00 79 1007.0
20260506004552 60 336 4.0 4.0 0.00 0.00 0.00 79 1006.6
20260506004048 60 5 2.0 3.0 0.00 0.00 0.00 78 1006.3
20260506003545 61 52 2.0 2.0 0.00 0.00 0.00 77 1006.4
20260506003041 61 52 0.0 2.0 0.00 0.00 0.00 76 1006.2
20260506002537 61 305 2.0 2.0 0.00 0.00 0.00 76 1006.0
20260506002033 62 218 2.0 4.0 0.00 0.00 0.00 74 1005.8
20260506001530 63 256 1.0 4.0 0.00 0.00 0.00 72 1006.0
20260506001027 62 190 3.0 4.0 0.00 0.00 0.00 73 1005.6
20260506000524 62 311 0.0 2.0 0.00 0.00 0.00 72 1005.7
20260506000022 63 224 3.0 11.0 0.00 0.00 0.00 69 1005.6
20260505235520 64 187 4.0 11.0 0.00 0.00 0.00 69 1005.9
20260505235016 63 163 5.0 9.0 0.00 0.00 0.00 70 1005.9
20260505234513 62 209 3.0 4.0 0.00 0.00 0.00 73 1005.7
20260505234010 61 180 4.0 4.0 0.00 0.00 0.00 76 1005.5
20260505233508 61 202 2.0 4.0 0.00 0.00 0.00 76 1005.7
20260505233005 62 310 1.0 6.0 0.00 0.00 0.00 75 1005.8
20260505232503 62 189 4.0 4.0 0.00 0.00 0.00 75 1005.6
20260505232000 62 197 5.0 6.0 0.00 0.00 0.00 73 1005.5
20260505231457 62 182 3.0 6.0 0.00 0.00 0.00 73 1005.6
20260505230955 62 162 4.0 6.0 0.00 0.00 0.00 73 1005.3
20260505230452 62 197 0.0 2.0 0.00 0.00 0.00 75 1005.2
20260505225948 62 208 2.0 3.0 0.00 0.00 0.00 75 1005.2
20260505225446 62 255 2.0 2.0 0.00 0.00 0.00 74 1005.2
20260505224942 63 181 3.0 5.0 0.00 0.00 0.00 72 1005.1
20260505224439 63 137 2.0 4.0 0.00 0.00 0.00 71 1005.2
20260505223936 63 225 2.0 4.0 0.00 0.00 0.00 72 1005.1
20260505223432 63 192 2.0 6.0 0.00 0.00 0.00 73 1005.1
20260505222929 62 152 5.0 5.0 0.00 0.00 0.00 75 1005.1
20260505222425 62 189 0.0 2.0 0.00 0.00 0.00 77 1005.2